2021-033K (48257 NORAD) Tracking and Keplerian Element Data

This shows tracking and keplerian element data for the satellite.

Feedback or suggestion? Click here.




ElementValue
Catalog48257
Name2021-033K
Epoch Orbit460
Epoch Day147.23141323
Epoch Year2021
RAAN222.6918
Inclination97.3209
Eccentricity0.0122658
Argument of Perigee235.1225
Mean Anonmoly210.1754
Mean Motion15.32683037
Decay Rate1.545E-05
L11 48257U 21033K 21147.23141323 .00001545 00000-0 40994-4 0 9994
L22 48257 97.3209 222.6918 0122658 235.1225 210.1754 15.32683037 4600

Live tracking and technical data element details for 2021-033K (NORAD 48257). 2021-033K can be tracked NOW for your location showing map with azimuth and elevation plus other details from your city location.

Track the satellite on the map from your city or location and see movement details for azimuth, elevation, latitude, longitude, range, height, and movement on the map or in text.







IsCatalogInMostPopularTable: catalog: 48257, numindb: 34
Update: records affected: 1



GetName: 48257 2021-033K

Hit Count: updated at: Sat, 31 Jul 2021 15:40:58 GMT